DELTA 1 DEB, 17000

Orbit data source: Space-Track

DELTA 1 DEB, 17000 is space debris in LEO originally from a launch on Thu, 29 Jul 1976 UTC launched from the Air Force Western Test Range (AFWTR). Debris objects in space refer to the collection of defunct objects orbiting the Earth. Examples of debris include non-operational satellites, rocket bodies, and fragments generated from explosions, collisions, or faulty payload assembly.

Loading next visibility...
Identifier
17000, 1976-077EX
Orbit
LEO
Country
Flag of USUS
Related business
Manufacturer
Unknown
Mission
Spacecraft
Bus & Motor
Unknown
Mass
Unknown
Launch date (UTC)
1976-07-29 (50 years ago)
Launch vehicle
Unknown
Launch site
Air Force Western Test Range (AFWTR)
Object type
Payload
Rocket body
Debris
Shape & HBR
Unknown shape, 0.1 m
Radar Cross Section
Small (<0.1 m²)

Expand to show TLE details & history
Last TLE update: 19 hours ago

TLE from 19 hours ago
0 DELTA 1 DEB
1 17000U 76077EX  26119.15175153 -.00002455  00000-0 -38007-1 0  9999
2 17000 102.4502 196.3173 0705984  93.8697 302.7145 11.33002015731211
Epoch: 2026-04-29T03:38Z
TLE epoch observation values (Epoch: 2026-04-29T03:38:31.332Z)
Latitude
28.74181°
Longitude
-82.35119°
Altitude
1,710.333 km
Speed
7.144 km/s
True Right ascension
12h 37m 35s
True Declination
28° 36' 51"
Sunlit
Object was in full shadow at epoch
Visualization orbit readout
Latitude
Unknown
Longitude
Unknown
Altitude
Unknown
Speed
Unknown
Apparent Right ascension
Unknown
Apparent Declination
Unknown
Sunlit
N/A
Visualization observer readout
Local Sidereal Time
05:45:24
Azimuth
Unknown
Elevation
Unknown
Doppler factor
Unknown
Orbital elements
Apogee altitude
2,584.242 km
Perigee altitude
1,402.231 km
Semi-major axis
8,371.374 km
Eccentricity
0.0706
Inclination
102.4502°
RAAN
196.3173°
Arg. of periapsis
93.8697°
True anomaly
295.58617°
Mean anomaly
302.7145°
Eccentric anomaly
299.18295°
Mean motion
2.83366 °/min
Orbital period
127.04 mins
BSTAR
-0.038007
Loading maneuver chart data...
Computing Atmospheric mass density...
Loading historical data...
Loading historical data...
Loading historical data...
Loading historical data...
Loading historical data...
Loading historical data...
Loading historical data...

Documentation

Showing up to 5 results
|